Voltar ao catálogo

STARLINK-31640

AtivoComunicaçõesVLEO
NORAD 59748·PAYLOAD·🇺🇸 United States

Lançado May 13, 2024 de Cape Canaveral Space Force Station

Loading…

Próximas Passagens (próximas 24 horas)

TLE

AtualizadoSource: CelesTrak SupGP

Época: Sep 14, 2026, 22:32 UTC

1 59748C 24090U   26257.93937500 -.00029657  00000+0 -10740-2 0  2577
2 59748  43.0025 194.7631 0001348 264.1303  67.1803 15.27598707    12

Acompanhe STARLINK-31640 em tempo real com AllMySat

Download on the App Store